[[{"header":{"parameterUnit":"m.s-1","parameterCategory":1,"la1":30.2991,"la2":30.254,"lo1":-89.0895,"lo2":-89.0444,"dy":0.0017,"dx":0.0017,"nx":28,"ny":28,"refTime":"2024-02-26T09:00:00:Z","depth":0,"parameterNumber":2,"parameterNumberName":"U-component_of_WINDS"},"data":[0,0,0,0,0,0,0,0,0,0,0,0,0,0,0,0,0,0,0,0,0,0,0,0,0,0,0,0,0,0,0,0,0,0,0,0,0,0,0,0,0,0,0,0,0,0,0,0,0,0,0,0,0,0,0,0,0,0,1.212,1.212,0,1.2131,1.2131,1.2131,1.2124,1.2123,1.2123,1.2123,1.2133,1.2133,1.2134,0,0,0,0,0,0,0,0,0,0,0,0,0,1.209,1.2091,1.212,1.212,1.212,1.2131,1.2131,1.2131,1.2124,1.2123,1.2123,1.2123,1.2132,1.2133,1.2134,0,0,0,0,0,0,0,0,0,0,0,0,0,1.2102,1.2091,1.212,1.2118,1.2118,1.2131,1.2131,1.2131,1.2124,1.2123,1.2123,1.2123,1.2132,1.2133,1.2134,1.2149,0,0,1.2137,1.2137,0,0,0,0,0,0,0,0,1.2101,1.2103,1.2118,1.2118,1.2118,1.2125,1.2124,1.2137,1.2124,1.2122,1.2123,1.2122,1.2131,1.2132,1.2135,1.215,1.215,1.2137,1.2137,1.2138,1.2138,0,0,0,0,0,0,0,1.2101,1.2103,1.2124,1.2118,1.2118,1.2116,1.2117,1.2127,1.2129,1.2122,1.2121,1.2123,1.213,1.2134,1.2135,1.215,1.2137,1.2137,1.2138,1.2138,1.2178,1.2178,0,0,0,0,0,0,1.21,1.2102,1.2124,1.2124,1.2108,1.2117,1.2118,1.2123,1.2129,1.2129,1.2123,1.2122,1.2133,1.2134,1.2135,1.2153,1.2138,1.2138,1.2139,1.2177,1.2178,1.2179,0,0,0,0,0,0,1.21,1.2102,1.2123,1.2113,1.2116,1.2118,1.2124,1.2124,1.2127,1.213,1.213,1.2126,1.2132,1.2134,1.2146,1.2154,1.2139,1.2139,1.2177,1.2178,1.2178,1.219,0,0,0,0,0,0,1.2099,1.2102,1.2108,1.2113,1.2116,1.2134,1.2124,1.2125,1.2129,1.2128,1.2133,1.2133,1.2132,1.2145,1.2147,1.2155,1.214,1.2176,1.2177,1.2178,1.2189,1.2191,1.2193,0,0,0,0,0,1.2098,1.2111,1.2109,1.2111,1.2124,1.2135,1.2136,1.2136,1.213,1.2136,1.2137,1.2133,1.2152,1.2146,1.2148,1.2156,1.2175,1.2177,1.2178,1.2188,1.2191,1.2193,0,0,0,0,0,0,1.2106,1.2112,1.2109,1.2125,1.2129,1.2134,1.2141,1.2138,1.2145,1.2143,1.2141,1.2142,1.2155,1.2157,1.2149,1.2171,1.2163,1.2165,1.217,1.2172,1.2174,1.2174,1.2141,0,0,0,0,0,1.211,1.2119,1.2123,1.2136,1.2138,1.2139,1.2144,1.2143,1.2148,1.2149,1.2152,1.2156,1.2163,1.2168,1.2174,1.2189,1.219,1.2196,1.2198,1.2199,1.2201,1.2209,1.2212,1.2183,1.2183,1.2182,0,0,1.2118,1.2122,1.2127,1.2138,1.2141,1.215,1.2141,1.2151,1.2157,1.2151,1.2162,1.2164,1.2168,1.2182,1.2188,1.2184,1.2209,1.2201,1.2202,1.2203,1.2211,1.2213,1.2216,1.2183,1.2183,1.2183,0,0,1.2137,1.2141,1.2152,1.2156,1.2161,1.2162,1.2165,1.2169,1.217,1.2182,1.2178,1.2184,1.2197,1.22,1.2203,1.2223,1.2219,1.2225,1.2236,1.2243,1.2246,1.2248,1.2255,1.2258,1.2226,1.2226,1.2226,0,1.2146,1.2159,1.2158,1.2168,1.2172,1.2167,1.2179,1.2182,1.2189,1.2192,1.2188,1.2203,1.2205,1.222,1.2224,1.2227,1.223,1.2225,1.2246,1.2248,1.225,1.2256,1.2259,1.2227,1.2227,1.2227,1.2227,0,1.217,1.2179,1.2187,1.2195,1.2201,1.2211,1.2211,1.2216,1.2214,1.2215,1.2227,1.223,1.2237,1.224,1.2238,1.2254,1.2251,1.2246,1.2238,1.2253,1.2259,1.2262,1.2228,1.2228,1.2228,1.2227,0,0,1.2195,1.2202,1.2205,1.2209,1.2214,1.2221,1.2231,1.2238,1.2243,1.2248,1.2256,1.2266,1.2262,1.2265,1.2264,1.227,1.2286,1.2264,1.2264,1.2269,1.2303,1.2308,1.2311,1.2283,1.2283,1.2284,1.2303,0,1.2214,1.2233,1.2232,1.2249,1.2257,1.2252,1.226,1.2265,1.2265,1.2272,1.2272,1.228,1.2273,1.2275,1.2282,1.2283,1.2293,1.2281,1.229,1.2291,1.229,1.2314,1.2319,1.2337,1.2306,1.2306,1.2306,0,1.224,1.2246,1.2264,1.2268,1.2272,1.228,1.2286,1.2293,1.2297,1.2297,1.2301,1.2298,1.2308,1.2299,1.2311,1.2303,1.2307,1.2308,1.2309,1.231,1.23,1.2317,1.2343,1.2346,1.231,1.231,1.231,0,1.2257,1.227,1.2282,1.2285,1.2291,1.2296,1.2298,1.2302,1.2307,1.2312,1.2315,1.2321,1.2325,1.2329,1.2328,1.2321,1.2341,1.2332,1.2341,1.2341,1.2346,1.2346,1.2374,1.2347,1.2347,1.2347,1.2347,0,1.2279,1.229,1.229,1.2298,1.231,1.2308,1.232,1.2322,1.2325,1.2332,1.2328,1.2335,1.2332,1.2339,1.2338,1.2349,1.235,1.235,1.235,1.2351,1.2351,1.2354,1.2353,1.2348,1.2348,1.2348,1.2348,0,1.2301,1.2301,1.2314,1.2318,1.2319,1.2328,1.2331,1.2338,1.2338,1.2348,1.235,1.235,1.2358,1.2356,1.2365,1.2364,1.2378,1.2375,1.2377,1.2376,1.2386,1.2385,1.2417,1.2421,1.2392,1.2392,1.2392,0,1.2315,1.2324,1.2329,1.2334,1.2337,1.2344,1.2349,1.2347,1.2352,1.2357,1.2364,1.2371,1.2377,1.2389,1.239,1.2396,1.2394,1.2405,1.2395,1.2396,1.2395,1.2395,1.2395,1.2407,1.2407,1.2407,1.2408,0,1.2341,1.2341,1.2348,1.2355,1.2361,1.2366,1.2371,1.2375,1.2374,1.238,1.2388,1.2392,1.2401,1.2408,1.2414,1.2415,1.2411,1.2411,1.2413,1.2415,1.2415,1.2416,1.2382,1.241,1.241,1.241,1.2409,1.2409,1.236,1.2367,1.2372,1.238,1.2384,1.2388,1.2395,1.2396,1.2403,1.241,1.2408,1.2417,1.2421,1.2428,1.2431,1.2437,1.2433,1.2437,1.2438,1.2439,1.2441,1.2414,1.2438,1.2438,1.2438,1.2438,1.2438,0,1.2386,1.2388,1.2396,1.2403,1.2409,1.2405,1.241,1.2416,1.2424,1.2428,1.2434,1.2443,1.2449,1.245,1.2457,1.2462,1.246,1.2464,1.2464,1.2464,1.2443,1.2441,1.2465,1.2465,1.2465,1.2465,1.2465,1.2465,1.24,1.2413,1.2413,1.2427,1.2429,1.2438,1.2442,1.2446,1.2449,1.2459,1.2465,1.2466,1.2468,1.2475,1.2481,1.2481,1.2484,1.2488,1.2488,1.2468,1.2466,1.2463,1.2461,1.2489,1.2489,1.2508,1.2508,1.2508]},{"header":{"parameterUnit":"m.s-1","parameterCategory":1,"la1":30.2991,"la2":30.254,"lo1":-89.0895,"lo2":-89.0444,"dy":0.0017,"dx":0.0017,"nx":28,"ny":28,"refTime":"2024-02-26T09:00:00:Z","depth":0,"parameterNumber":3,"parameterNumberName":"V-component_of_WINDS"},"data":[0,0,0,0,0,0,0,0,0,0,0,0,0,0,0,0,0,0,0,0,0,0,0,0,0,0,0,0,0,0,0,0,0,0,0,0,0,0,0,0,0,0,0,0,0,0,0,0,0,0,0,0,0,0,0,0,0,0,4.5321,4.5321,0,4.5299,4.5299,4.5298,4.5259,4.5258,4.5257,4.5256,4.5235,4.5235,4.5235,0,0,0,0,0,0,0,0,0,0,0,0,0,4.533,4.533,4.5321,4.5321,4.532,4.5299,4.5299,4.5298,4.5259,4.5258,4.5257,4.5256,4.5235,4.5235,4.5235,0,0,0,0,0,0,0,0,0,0,0,0,0,4.5319,4.533,4.5321,4.5298,4.5296,4.5299,4.5299,4.5298,4.5259,4.5258,4.5257,4.5256,4.5235,4.5235,4.5235,4.5259,0,0,4.5236,4.5236,0,0,0,0,0,0,0,0,4.5319,4.5318,4.5302,4.53,4.5297,4.528,4.5294,4.5285,4.5259,4.5273,4.5256,4.5255,4.5251,4.525,4.5248,4.5258,4.5257,4.5236,4.5236,4.5236,4.5236,0,0,0,0,0,0,0,4.532,4.5319,4.5312,4.5301,4.5299,4.5289,4.5286,4.5292,4.5269,4.5272,4.5269,4.5267,4.5249,4.5248,4.5247,4.5257,4.5236,4.5236,4.5236,4.5236,4.5286,4.5288,0,0,0,0,0,0,4.5324,4.532,4.5313,4.5312,4.5306,4.529,4.5287,4.5287,4.5268,4.5264,4.5268,4.5265,4.5248,4.5247,4.5246,4.5274,4.5236,4.5236,4.5236,4.5285,4.5287,4.5288,0,0,0,0,0,0,4.5325,4.5324,4.5314,4.5315,4.5313,4.5291,4.5291,4.5287,4.5286,4.5265,4.5261,4.527,4.5247,4.5246,4.5256,4.5273,4.5236,4.5236,4.5284,4.5286,4.5287,4.533,0,0,0,0,0,0,4.5325,4.5324,4.5333,4.5315,4.5313,4.5324,4.5292,4.5287,4.5286,4.5282,4.5267,4.5263,4.5246,4.5256,4.5257,4.5273,4.5236,4.5282,4.5285,4.5287,4.5327,4.5333,4.5338,0,0,0,0,0,4.5325,4.5346,4.5334,4.5333,4.5323,4.5325,4.5324,4.5303,4.5287,4.5296,4.5283,4.5264,4.5271,4.5258,4.5258,4.5274,4.5281,4.5284,4.5287,4.5324,4.5332,4.5338,0,0,0,0,0,0,4.5366,4.5343,4.5329,4.5344,4.5337,4.5318,4.5329,4.5312,4.5309,4.5305,4.5281,4.5278,4.5292,4.5283,4.5269,4.5297,4.5273,4.5276,4.5302,4.5308,4.5314,4.5316,4.5237,0,0,0,0,0,4.5377,4.538,4.5359,4.5375,4.5372,4.5351,4.5351,4.5336,4.5327,4.5324,4.5312,4.5305,4.5305,4.5306,4.5305,4.5325,4.5322,4.5336,4.5342,4.5347,4.535,4.5361,4.5367,4.5297,4.5297,4.5297,0,0,4.5399,4.5387,4.539,4.5383,4.5375,4.5379,4.5349,4.5354,4.5357,4.5325,4.5334,4.5325,4.5315,4.5331,4.5337,4.5325,4.5368,4.535,4.5354,4.5355,4.5364,4.5371,4.5377,4.5299,4.5299,4.5298,0,0,4.5442,4.5432,4.5444,4.5438,4.5426,4.5413,4.5416,4.5399,4.5392,4.5401,4.5377,4.5381,4.5382,4.5376,4.5374,4.5415,4.5397,4.5415,4.5445,4.5456,4.5461,4.5466,4.5482,4.5488,4.5418,4.5418,4.5418,0,4.5471,4.5476,4.5453,4.546,4.5458,4.5429,4.5442,4.5436,4.5426,4.5425,4.5411,4.5413,4.5404,4.5418,4.5428,4.5427,4.543,4.5417,4.5462,4.5467,4.5471,4.5486,4.5492,4.542,4.542,4.542,4.542,0,4.5513,4.5517,4.5528,4.5519,4.5517,4.5527,4.5507,4.5508,4.5494,4.5482,4.5491,4.548,4.5477,4.5479,4.5464,4.5491,4.5484,4.5467,4.5442,4.548,4.5494,4.5499,4.5424,4.5423,4.5422,4.5422,0,0,4.5581,4.5559,4.5564,4.556,4.5545,4.5548,4.5557,4.5554,4.5556,4.555,4.5557,4.5559,4.5543,4.554,4.5525,4.5534,4.5569,4.5515,4.5515,4.5527,4.56,4.5614,4.5621,4.5557,4.5558,4.5558,4.5601,0,4.5622,4.5636,4.5616,4.5634,4.5638,4.561,4.5618,4.5611,4.56,4.5602,4.5589,4.5591,4.5569,4.5567,4.5575,4.5563,4.5584,4.556,4.5565,4.5565,4.5569,4.5628,4.5643,4.5683,4.5606,4.5607,4.5607,0,4.5671,4.5668,4.5687,4.5672,4.5673,4.568,4.5676,4.5678,4.5669,4.566,4.5657,4.5639,4.5647,4.5623,4.5635,4.5619,4.562,4.5614,4.5615,4.5616,4.5589,4.5631,4.5696,4.5702,4.5615,4.5615,4.5614,0,4.5721,4.5721,4.5732,4.5729,4.5712,4.5718,4.5711,4.5701,4.5701,4.5697,4.5697,4.5694,4.5693,4.5692,4.5674,4.5658,4.5688,4.5662,4.5682,4.5683,4.5691,4.5691,4.5758,4.5689,4.5689,4.5689,4.5689,0,4.577,4.5783,4.5755,4.5762,4.5776,4.5753,4.5767,4.5758,4.5749,4.5754,4.573,4.5735,4.571,4.5714,4.5699,4.5712,4.5711,4.5705,4.5701,4.5708,4.5709,4.5709,4.5706,4.5691,4.569,4.569,4.569,0,4.5828,4.581,4.5821,4.5803,4.5799,4.581,4.5796,4.5802,4.5789,4.5796,4.5797,4.5777,4.5779,4.5761,4.576,4.575,4.577,4.5761,4.5773,4.5771,4.5792,4.5791,4.5863,4.5871,4.5796,4.5797,4.5798,0,4.5861,4.5871,4.5854,4.5856,4.585,4.5853,4.5853,4.583,4.5831,4.5822,4.5829,4.583,4.5829,4.5834,4.582,4.582,4.5811,4.5836,4.5811,4.5818,4.5813,4.5813,4.5815,4.5842,4.5843,4.5843,4.5844,0,4.5922,4.5912,4.5912,4.591,4.591,4.5906,4.5902,4.5904,4.588,4.5882,4.5884,4.5884,4.5883,4.5884,4.588,4.5874,4.5856,4.5852,4.5857,4.5864,4.5872,4.587,4.5789,4.5851,4.585,4.585,4.5849,4.5849,4.597,4.5977,4.5967,4.5968,4.5962,4.5958,4.5963,4.5951,4.5952,4.595,4.5936,4.5941,4.5932,4.5926,4.5921,4.5925,4.5913,4.592,4.5922,4.5924,4.5929,4.587,4.5924,4.5924,4.5924,4.5924,4.5923,0,4.603,4.6022,4.6024,4.6018,4.6019,4.6,4.5994,4.5997,4.6001,4.5994,4.5994,4.5997,4.5998,4.5984,4.5983,4.5989,4.5981,4.599,4.599,4.5989,4.5939,4.5935,4.5997,4.5997,4.5997,4.5997,4.5997,4.5997,4.6062,4.6074,4.6064,4.6073,4.6064,4.6069,4.6067,4.6064,4.6058,4.6062,4.6063,4.6054,4.6044,4.6043,4.6043,4.6039,4.6041,4.6053,4.6046,4.6,4.5992,4.5986,4.5982,4.6053,4.6053,4.6096,4.6097,4.6097]}]]